Location: Peterborough
(44.3091°N, 78.3197°W)
Time: 06:59:54
(UTC-04:00)

Vanguard 3 - Pass Details

Date: 26 March 2023
Orbit: 507 x 3246 km, 33.4° (Epoch: 04 June)

Event Time Altitude Azimuth Distance (km) Brightness Sun altitude
Rises 03:12:16 0° 222° (SW) 6,452 - -37.1°
Reaches altitude 10° 03:16:33 10° 215° (SW) 5,706 - -36.7°
Exits shadow 03:28:52 39° 178° (S) 4,219 10.3 -35.3°
Maximum altitude 03:33:17 43° 153° (SSE) 4,085 10.4 -34.7°
Drops below altitude 10° 03:49:57 10° 91° (E) 5,713 11.9 -32.6°
Sets 03:54:13 0° 85° (E) 6,465 12.4 -32.1°
